Weather History for Newhall, CA

Change the Weather History Date:

Sunday, May 10, 2009

  Actual Average (KBUR) Record (KBUR)
Temperature  
Mean Temperature 68 °F 65 °F  
Max Temperature 83 °F 76 °F 95 °F (1981)
Min Temperature 52 °F 54 °F 45 °F (1948)
Degree Days  
Heating Degree Days 0 2  
Month to date heating degree days 25  
Since 1 July heating degree days 1522  
Cooling Degree Days 2 2  
Month to date cooling degree days 20  
Year to date cooling degree days 71  
Growing Degree Days 18 (Base 50)    
Moisture  
Dew Point 53 °F    
Average Humidity 63    
Maximum Humidity 89    
Minimum Humidity 42    
Precipitation  
Precipitation 0.00 in 0.01 in 0.16 in (1980)
Month to date precipitation 0.16  
Year to date precipitation 12.25  
Since 1 July precipitation 17.01  
Sea Level Pressure  
Sea Level Pressure 29.89 in    
Wind  
Wind Speed 3 mph (North)    
Max Wind Speed 9 mph    
Max Gust Speed -    
T = Trace of Precipitation, MM = Missing Value Source: NWS Daily Summary

Daily Weather History Graph

Daily Weather History Graph

Search for Another Location

Airport:

Trip Planner

Search our weather history database for the weather conditions in past years. The results will help you decide how hot, cold, wet, or windy it might be!

Date:

Astronomy

May. 10, 2009 Rise Set
Actual Time 5:55 AM PDT 7:46 PM PDT
Civil Twilight 5:28 AM PDT 8:13 PM PDT
Nautical Twilight 4:55 AM PDT 8:46 PM PDT
Astronomical Twilight 4:19 AM PDT 9:22 PM PDT
Moon 9:44 PM PDT (5/10) 6:37 AM PDT (5/10)
Length of Visible Light 14h 45m
Length of Day
13h 50m
Full, 97% of the Moon is Illuminated
May 10
Full
May 17
Last Quarter
May 24
New
May 30
First Quarter
Jun 7
Full

Hourly Weather History & Observations

Time (PDT) Temp. Heat Index Dew Point Humidity Pressure Visibility Wind Dir Wind Speed Gust Speed Precip Events Conditions
12:10 AM 59.7 °F - 50.0 °F 70% 29.84 in - South 1.2 mph - N/A   Unknown
12:30 AM 59.0 °F - 49.5 °F 71% 29.85 in - South 1.2 mph - N/A   Unknown
1:10 AM 58.8 °F - 50.4 °F 73% 29.86 in - South 3.5 mph - N/A   Unknown
1:30 AM 58.1 °F - 50.4 °F 75% 29.86 in - South 3.5 mph - N/A   Unknown
1:50 AM 57.7 °F - 50.2 °F 76% 29.86 in - South 2.3 mph - N/A   Unknown
2:10 AM 57.6 °F - 51.1 °F 79% 29.87 in - South 2.3 mph - N/A   Unknown
2:30 AM 56.7 °F - 50.2 °F 79% 29.87 in - South 2.3 mph - N/A   Unknown
2:50 AM 55.0 °F - 49.5 °F 81% 29.87 in - South 3.5 mph - N/A   Unknown
3:10 AM 55.8 °F - 50.4 °F 82% 29.87 in - South 2.3 mph - N/A   Unknown
3:30 AM 56.3 °F - 49.1 °F 77% 29.87 in - South 2.3 mph - N/A   Unknown
3:50 AM 55.6 °F - 49.1 °F 79% 29.88 in - South 2.3 mph - N/A   Unknown
4:10 AM 55.0 °F - 49.6 °F 82% 29.88 in - South 1.2 mph - N/A   Unknown
4:30 AM 54.1 °F - 49.5 °F 84% 29.88 in - South 2.3 mph - N/A   Unknown
4:50 AM 53.6 °F - 47.8 °F 81% 29.88 in - South 1.2 mph - N/A   Unknown
5:10 AM 53.6 °F - 48.2 °F 82% 29.88 in - South 1.2 mph - N/A   Unknown
5:30 AM 53.8 °F - 48.0 °F 81% 29.88 in - South 2.3 mph - N/A   Unknown
5:50 AM 52.9 °F - 47.8 °F 83% 29.89 in - South 2.3 mph - N/A   Unknown
6:10 AM 52.2 °F - 48.0 °F 86% 29.90 in - South 3.5 mph - N/A   Unknown
6:30 AM 53.2 °F - 49.5 °F 87% 29.91 in - South 2.3 mph - N/A   Unknown
6:50 AM 54.3 °F - 51.1 °F 89% 29.91 in - South 3.5 mph - N/A   Unknown
7:10 AM 56.1 °F - 52.5 °F 88% 29.91 in - South 3.5 mph - N/A   Unknown
7:30 AM 59.2 °F - 54.3 °F 84% 29.92 in - South 2.3 mph - N/A   Unknown
7:50 AM 60.8 °F - 52.3 °F 74% 29.93 in - South 2.3 mph - N/A   Unknown
8:10 AM 63.1 °F - 54.3 °F 73% 29.93 in - South 1.2 mph - N/A   Unknown
8:30 AM 66.6 °F - 54.3 °F 65% 29.93 in - South 2.3 mph - N/A   Unknown
8:50 AM 67.3 °F - 53.2 °F 61% 29.93 in - South 3.5 mph - N/A   Unknown
9:10 AM 66.2 °F - 54.0 °F 65% 29.93 in - South 1.2 mph - N/A   Unknown
9:30 AM 67.3 °F - 54.1 °F 63% 29.93 in - South 2.3 mph - N/A   Unknown
9:50 AM 69.3 °F - 54.5 °F 59% 29.93 in - South 3.5 mph - N/A   Unknown
10:10 AM 72.0 °F - 54.3 °F 54% 29.93 in - South 2.3 mph - N/A   Unknown
10:30 AM 73.0 °F - 54.9 °F 53% 29.93 in - South 3.5 mph - N/A   Unknown
10:50 AM 74.5 °F - 55.6 °F 52% 29.93 in - South 3.5 mph - N/A   Unknown
11:10 AM 76.5 °F - 55.8 °F 49% 29.93 in - South 3.5 mph - N/A   Unknown
11:30 AM 79.3 °F - 57.9 °F 48% 29.93 in - South 2.3 mph - N/A   Unknown
11:50 AM 80.8 °F 80.9 °F 56.8 °F 44% 29.92 in - South 1.2 mph - N/A   Unknown
12:10 PM 81.0 °F 81.1 °F 57.6 °F 45% 29.91 in - South 2.3 mph - N/A   Unknown
12:30 PM 81.5 °F 81.7 °F 58.6 °F 46% 29.90 in - South 3.5 mph - N/A   Unknown
12:50 PM 83.5 °F 83.2 °F 58.6 °F 43% 29.89 in - South 4.6 mph - N/A   Unknown
1:10 PM 82.0 °F 81.8 °F 57.2 °F 43% 29.88 in - South 4.6 mph - N/A   Unknown
1:30 PM 82.2 °F 82.1 °F 58.1 °F 44% 29.88 in - South 3.5 mph - N/A   Unknown
1:50 PM 82.0 °F 81.8 °F 57.2 °F 43% 29.88 in - South 5.8 mph - N/A   Unknown
2:10 PM 82.6 °F 82.2 °F 57.0 °F 42% 29.87 in - South 3.5 mph - N/A   Unknown
2:30 PM 82.0 °F 81.7 °F 56.7 °F 42% 29.86 in - South 4.6 mph - N/A   Unknown
2:50 PM 83.1 °F 82.7 °F 57.6 °F 42% 29.86 in - South 5.8 mph - N/A   Unknown
3:10 PM 81.0 °F 80.9 °F 56.3 °F 43% 29.86 in - South 9.2 mph - N/A   Unknown
3:30 PM 80.4 °F 80.5 °F 55.8 °F 43% 29.84 in - South 8.1 mph - N/A   Unknown
3:50 PM 80.6 °F 80.6 °F 55.9 °F 43% 29.85 in - South 5.8 mph - N/A   Unknown
4:10 PM 80.8 °F 80.9 °F 56.8 °F 44% 29.84 in - South 5.8 mph - N/A   Unknown
4:30 PM 80.6 °F 80.6 °F 55.9 °F 43% 29.83 in - South 6.9 mph - N/A   Unknown
4:50 PM 79.5 °F - 55.6 °F 44% 29.83 in - South 9.2 mph - N/A   Unknown
5:10 PM 77.7 °F - 55.8 °F 47% 29.82 in - South 8.1 mph - N/A   Unknown
5:30 PM 76.1 °F - 55.4 °F 49% 29.83 in - South 8.1 mph - N/A   Unknown
5:50 PM 75.7 °F - 55.9 °F 50% 29.82 in - South 6.9 mph - N/A   Unknown
6:10 PM 74.5 °F - 55.0 °F 51% 29.82 in - South 8.1 mph - N/A   Unknown
6:30 PM 72.7 °F - 55.0 °F 54% 29.81 in - South 9.2 mph - N/A   Unknown
6:50 PM 70.5 °F - 54.0 °F 56% 29.81 in - South 8.1 mph - N/A   Unknown
7:10 PM 68.2 °F - 54.1 °F 61% 29.81 in - South 5.8 mph - N/A   Unknown
7:30 PM 67.1 °F - 54.0 °F 63% 29.82 in - South 5.8 mph - N/A   Unknown
7:50 PM 66.0 °F - 53.8 °F 65% 29.82 in - South 4.6 mph - N/A   Unknown
8:10 PM 65.3 °F - 54.0 °F 67% 29.82 in - South 3.5 mph - N/A   Unknown
8:30 PM 65.5 °F - 54.1 °F 67% 29.83 in - South 4.6 mph - N/A   Unknown
8:50 PM 65.1 °F - 53.8 °F 67% 29.83 in - South 4.6 mph - N/A   Unknown
9:10 PM 65.8 °F - 53.6 °F 65% 29.83 in - South 1.2 mph - N/A   Unknown
9:30 PM 65.3 °F - 53.6 °F 66% 29.84 in - South 2.3 mph - N/A   Unknown
9:50 PM 64.2 °F - 53.8 °F 69% 29.84 in - South 2.3 mph - N/A   Unknown
10:10 PM 63.0 °F - 52.9 °F 70% 29.85 in - South 2.3 mph - N/A   Unknown
10:30 PM 62.4 °F - 52.9 °F 71% 29.85 in - South 1.2 mph - N/A   Unknown
10:50 PM 61.7 °F - 53.2 °F 74% 29.86 in - South 1.2 mph - N/A   Unknown
11:10 PM 61.2 °F - 53.1 °F 75% 29.86 in - South 2.3 mph - N/A   Unknown
11:30 PM 59.9 °F - 52.5 °F 77% 29.85 in - South 2.3 mph - N/A   Unknown
11:50 PM 59.2 °F - 52.2 °F 78% 29.85 in - South 2.3 mph - N/A   Unknown